Weather in Palm Cove

Australia     16°45′44″S   145°40′00″E
temp.,
°C
wind,
m/s
gust,
m/s
humid.,
%
clouds,
%
prec.,
mm/h
press.,
hPa
HPBL,
m
26 february, fri
fri2601:00+26s6886100 4.5 1005392
04:00+26s5785100 7.7 1003389
07:00+26s578499 2.3 1005422
10:00+27se678399 4.9 1006549
13:00+27se6883100 2.1 1004685
16:00+27se6883100 2.5 1003683
19:00+27sse7983100 0.1 1005567
22:00+26sse6985100 1.1 1007539
27 february, sat
sat2701:00+26s5882100 1.3 1005460
04:00+26ssw4682100 2.1 1004389
07:00+27s5782100 0.7 1006427
10:00+28se5776100 2.8 1006588
13:00+29se677684 0.5 1005713
16:00+27se798492 2.9 1003589
19:00+27sse71086100 2.6 1005572
22:00+26s6885100 3.5 1007478
28 february, sun
sun2801:00+27s4781100 0.3 1006404
04:00+27ssw4680100 0.9 1005425
07:00+25sse4696100 48.4 1006344
10:00+25s71189100 101.6 1007615
13:00+26sse81184100 1.9 1006578
16:00+27se81182100 2.4 1004961
19:00+27se8118386 2.5 1005932
22:00+26sse8108679 4.1 1007724
1 march, mon
mon101:00+26sse81191100 7.2 1005650
04:00+26sse81189100 11.4 1004673
07:00+26se71092100 7.8 1006672
10:00+26sse71189100 21.3 1007680
13:00+26sse61086100 1.7 1006604
16:00+27sse6983100 1.8 1004690
19:00+27s5979100 0.4 1006696
22:00+27sse81281100 0.9 1007803
2 march, tue
tue201:00+26sse81182100 0.1 1006896
04:00+26sse7108394 0.5 1005788
07:00+26sse6981100 0.1 1006936
10:00+28se7107598 0.3 10071080
13:00+29se7969100 0.1 1006947
16:00+28se10127681 0.1 10041051
19:00+27sse8117778 0.1 1006898
22:00+26s597587 0.1 1008745